Volver al catálogo

FREGAT DEB

LostUNKNOWN
NORAD 45883·DEBRIS·🇷🇺 Russia

Lanzado Jul 18, 2011 desde Baikonur Cosmodrome

Loading…

Próximos Pases (próximas 24 horas)

TLE

ObsoletoSource: Space-Track

Época: Apr 9, 2022, 02:11 UTC

1 45883U 11037DC  22099.09139047  .00530589  00000-0  38792+0 0  9993
2 45883  51.3968 129.9494 1780743 310.3397  35.4656 11.14715453 70947

Sigue FREGAT DEB en tiempo real con AllMySat

Download on the App Store